This demonstration page uses our WeatherBlox Daily Observations layout. Learn more.

Left ArrowRight Arrow

Hourly Observations for August 4, 2015

Temp ( °F °C ) Dew Point ( °F °C ) Humidity (%) Winds ( mph kmh ) Pressure ( in mb ) Visibility ( mi km ) Precip ( " mm )
12:51 am 00:51 Clear 81 27.2 45 7.2 28 28 WNW 7 11 29.73 1007 10 16 0.00 0.00
1:51 am 01:51 Clear 78 25.6 45 7.2 31 31 NNW 3 6 29.73 1007 10 16 0.00 0.00
2:51 am 02:51 Clear 75 23.9 44 6.7 33 33 N 3 6 29.76 1008 10 16 0.00 0.00
3:51 am 03:51 Clear 76 24.4 45 7.2 33 33 Calm 29.77 1008 10 16 0.00 0.00
4:51 am 04:51 Clear 77 25 73 22.8 88 88 E 6 9 29.91 1013 10 16 0.00 0.00
5:51 am 05:51 Sunny 76 24.6 70 20.9 80 80 Calm 29.88 1012 10 16 0.00 0.00
6:51 am 06:51 Sunny 76 24.4 50 10 40 40 Calm 29.84 1010 10 16 0.00 0.00
7:51 am 07:51 Sunny 81 27.2 53 11.7 38 38 Calm 29.85 1011 10 16 0.00 0.00
8:51 am 08:51 Sunny 88 31.1 49 9.4 26 26 VRB 3 6 29.84 1011 10 16 0.00 0.00
9:51 am 09:51 Sunny 93 33.9 45 7.2 19 19 WNW 9 15 29.83 1010 10 16 0.00 0.00
10:51 am 10:51 Sunny 97 36.1 44 6.7 16 16 VRB 7 11 29.82 1010 10 16 0.00 0.00
11:51 am 11:51 Sunny 100 37.8 44 6.7 15 15 WNW 8 13 29.80 1009 10 16 0.00 0.00
12:51 pm 12:51 Mostly Sunny 103 39.4 44 6.7 13 13 WSW 12 19 29.78 1008 10 16 0.00 0.00
1:51 pm 13:51 Partly Cloudy 104 40 43 6.1 12 12 WSW 12 19 29.77 1008 10 16 0.00 0.00
2:51 pm 14:51 Mostly Cloudy 104 40 42 5.6 12 12 W 13 20 29.75 1007 10 16 0.00 0.00
3:51 pm 15:51 Mostly Cloudy 105 40.6 41 5 11 11 W 15 24 29.72 1007 10 16 0.00 0.00
4:51 pm 16:51 Mostly Cloudy 105 40.6 38 3.3 10 10 NW 13 20 29.71 1006 10 16 0.00 0.00
5:51 pm 17:51 Mostly Cloudy 103 39.4 38 3.3 11 11 WNW 16 26 29.71 1006 10 16 0.00 0.00
6:51 pm 18:51 Partly Cloudy 100 37.8 38 3.3 12 12 NW 15 24 29.72 1006 10 16 0.00 0.00
7:51 pm 19:51 Partly Cloudy 96 35.6 40 4.4 14 14 NW 10 17 29.74 1007 10 16 0.00 0.00
8:51 pm 20:51 Clear 92 33.3 40 4.4 16 16 NW 10 17 29.76 1008 10 16 0.00 0.00
9:51 pm 21:51 Clear 89 31.7 42 5.6 19 19 WNW 13 20 29.77 1008 10 16 0.00 0.00
10:51 pm 22:51 Clear 87 30.6 43 6.1 21 21 WNW 13 20 29.78 1008 10 16 0.00 0.00
11:51 pm 23:51 Clear 85 29.4 43 6.1 23 23 NW 12 19 29.78 1008 10 16 0.00 0.00

Powered by AerisWeather